contact:dominique.lefevre@mio.osupytheas.fr, maurice.libes@osupytheas.fr
Project:EMSO Ligure-ouest http://www.emso-fr.org/EMSO-France
Sensor Aquadopp, line 13 Serial AQD14315 
DOI : "https://doi.org/10.17882/74513; https://doi.org/10.17882/83244" 
Title:EMSO Ligure Ouest : Data ligne ALBATROSS capteur AQUADOPP - deploiement 2021
Id,Date,Profondeur,Latitude,Longitude,X_East,Y_North,Z_Up,Amplitude_X,Amplitude_Y,Amplitude_Z,Batterie,SoundSpeed,Heading,Pitch,Roll,Pressure,Temperature,Speed,Direction
, , m, degrees North, degrees East, m.s-1, m.s-1,m.s-1, 1, 1, 1, Volt, m.s-1, degree, degree, degree, dbar, degree_C, m.s-1, degree
09,2022-05-16T21:30:00,2000.0,42.79,6.0312,0.001,-0.014,-0.011,73.0,68.0,72.0,11.7,1504.7,226.1,-0.8,1.1,1990.591,13.29,0.014,175.9
09,2022-05-16T22:00:00,2000.0,42.79,6.0312,0.0,-0.021,0.0,70.0,72.0,71.0,11.7,1504.7,231.3,-0.9,1.1,1990.6,13.29,0.021,180.0
09,2022-05-16T22:30:00,2000.0,42.79,6.0312,0.0,-0.013,0.001,82.0,71.0,75.0,11.7,1504.7,234.4,-0.9,1.1,1990.61,13.29,0.013,180.0
09,2022-05-16T23:00:00,2000.0,42.79,6.0312,-0.01,-0.016,-0.011,73.0,70.0,73.0,11.7,1504.7,237.8,-0.9,1.2,1990.607,13.29,0.018,212.0
09,2022-05-17T00:00:00,2000.0,42.79,6.0312,-0.021,-0.004,0.017,72.0,69.0,72.0,11.7,1504.7,239.4,-1.0,1.1,1990.498,13.29,0.021,259.2
09,2022-05-17T00:30:00,2000.0,42.79,6.0312,-0.024,0.013,-0.01,73.0,69.0,73.0,11.7,1504.7,241.6,-0.9,1.1,1990.49,13.3,0.027,298.4
09,2022-05-17T01:00:00,2000.0,42.79,6.0312,-0.023,0.013,0.002,71.0,65.0,71.0,11.7,1504.7,245.4,-1.0,1.1,1990.476,13.3,0.026,299.5
09,2022-05-17T01:30:00,2000.0,42.79,6.0312,-0.019,0.023,-0.022,72.0,67.0,69.0,11.7,1504.7,246.8,-1.0,1.1,1990.476,13.3,0.029,320.4
09,2022-05-17T02:00:00,2000.0,42.79,6.0312,-0.036,-0.005,-0.026,70.0,66.0,69.0,11.7,1504.7,246.1,-1.0,1.1,1990.418,13.3,0.036,262.1
09,2022-05-17T02:30:00,2000.0,42.79,6.0312,-0.033,-0.018,-0.007,69.0,66.0,71.0,11.7,1504.7,245.2,-0.9,1.2,1990.416,13.3,0.037,241.4
09,2022-05-17T03:00:00,2000.0,42.79,6.0312,-0.022,-0.009,-0.003,71.0,63.0,67.0,11.7,1504.7,252.3,-1.0,1.1,1990.409,13.3,0.023,247.8
09,2022-05-17T03:30:00,2000.0,42.79,6.0312,-0.03,-0.012,-0.012,67.0,64.0,66.0,11.7,1504.7,250.1,-1.0,1.1,1990.469,13.3,0.032,248.2
09,2022-05-17T04:00:00,2000.0,42.79,6.0312,-0.029,0.002,0.003,69.0,66.0,64.0,11.7,1504.7,249.6,-0.9,1.2,1990.473,13.3,0.029,273.9
09,2022-05-17T04:30:00,2000.0,42.79,6.0312,-0.039,-0.001,-0.022,69.0,63.0,67.0,11.7,1504.7,249.6,-1.1,1.1,1990.54,13.29,0.039,268.5
09,2022-05-17T05:00:00,2000.0,42.79,6.0312,-0.023,0.014,-0.009,71.0,62.0,67.0,11.7,1504.7,258.2,-0.8,1.2,1990.559,13.29,0.026,301.3
09,2022-05-17T05:30:00,2000.0,42.79,6.0312,-0.042,0.018,-0.004,70.0,63.0,65.0,11.7,1504.7,254.5,-1.1,1.0,1990.579,13.29,0.045,293.2
09,2022-05-17T06:00:00,2000.0,42.79,6.0312,-0.029,0.02,-0.019,66.0,65.0,67.0,11.7,1504.7,261.1,-1.2,1.2,1990.59,13.29,0.035,304.6
09,2022-05-17T06:30:00,2000.0,42.79,6.0312,-0.044,0.016,0.006,67.0,64.0,65.0,11.7,1504.7,255.7,-1.3,1.1,1990.616,13.29,0.046,290.0
09,2022-05-17T07:00:00,2000.0,42.79,6.0312,-0.063,0.006,0.003,66.0,62.0,68.0,11.7,1504.7,254.2,-0.9,1.1,1990.627,13.29,0.063,275.4
09,2022-05-17T07:30:00,2000.0,42.79,6.0312,-0.041,0.026,-0.014,67.0,64.0,67.0,11.7,1504.7,256.4,-0.9,1.1,1990.618,13.29,0.048,302.4
09,2022-05-17T08:00:00,2000.0,42.79,6.0312,-0.035,0.012,-0.017,69.0,64.0,68.0,11.7,1504.7,258.7,-1.4,1.0,1990.598,13.29,0.037,288.9
09,2022-05-17T08:30:00,2000.0,42.79,6.0312,-0.035,0.026,0.0,65.0,64.0,66.0,11.7,1504.7,260.6,-1.2,1.1,1990.592,13.29,0.043,306.6
09,2022-05-17T09:00:00,2000.0,42.79,6.0312,-0.015,0.023,0.016,68.0,64.0,67.0,11.7,1504.7,259.9,-1.2,1.1,1990.602,13.29,0.027,326.9
09,2022-05-17T09:30:00,2000.0,42.79,6.0312,-0.042,0.042,-0.015,68.0,63.0,64.0,11.7,1504.7,255.6,-0.8,1.2,1990.602,13.29,0.059,315.0
09,2022-05-17T10:00:00,2000.0,42.79,6.0312,-0.04,0.023,0.004,68.0,62.0,70.0,11.7,1504.7,261.9,-1.2,1.1,1990.561,13.29,0.046,299.9
09,2022-05-17T10:30:00,2000.0,42.79,6.0312,-0.053,0.031,-0.016,70.0,69.0,71.0,11.7,1504.7,256.8,-1.6,1.2,1990.567,13.29,0.061,300.3
09,2022-05-17T11:00:00,2000.0,42.79,6.0312,-0.052,0.026,-0.005,73.0,70.0,74.0,11.7,1504.7,264.4,-0.8,1.1,1990.494,13.29,0.058,296.6
09,2022-05-17T11:30:00,2000.0,42.79,6.0312,-0.044,0.035,0.0,77.0,74.0,71.0,11.7,1504.7,272.5,-0.7,1.1,1990.498,13.29,0.056,308.5
09,2022-05-17T12:00:00,2000.0,42.79,6.0312,-0.052,0.026,-0.015,70.0,69.0,72.0,11.7,1504.7,261.3,-1.3,1.2,1990.501,13.29,0.058,296.6
09,2022-05-17T13:00:00,2000.0,42.79,6.0312,-0.052,0.052,-0.014,75.0,69.0,75.0,11.7,1504.7,268.0,-1.4,1.2,1990.467,13.29,0.073,315.0
09,2022-05-17T13:30:00,2000.0,42.79,6.0312,-0.065,0.033,-0.014,73.0,70.0,76.0,11.7,1504.7,266.0,-1.6,1.3,1990.458,13.29,0.072,296.9
09,2022-05-17T14:00:00,2000.0,42.79,6.0312,-0.061,0.024,0.017,73.0,70.0,72.0,11.7,1504.7,268.6,-1.2,1.3,1990.477,13.29,0.065,291.5
09,2022-05-17T14:30:00,2000.0,42.79,6.0312,-0.04,0.021,0.007,74.0,68.0,73.0,11.7,1504.7,274.2,-0.7,1.2,1990.436,13.29,0.045,297.7
09,2022-05-17T15:00:00,2000.0,42.79,6.0312,-0.041,0.046,0.001,74.0,68.0,72.0,11.7,1504.7,275.0,-0.8,1.1,1990.389,13.29,0.061,318.3
09,2022-05-17T15:30:00,2000.0,42.79,6.0312,-0.065,0.031,-0.023,75.0,71.0,74.0,11.7,1504.7,270.1,-1.1,1.3,1990.471,13.29,0.072,295.5
09,2022-05-17T16:00:00,2000.0,42.79,6.0312,-0.049,0.042,-0.014,76.0,70.0,75.0,11.7,1504.7,268.0,-1.6,1.2,1990.473,13.29,0.064,310.6
09,2022-05-17T16:30:00,2000.0,42.79,6.0312,-0.05,0.04,-0.008,73.0,72.0,74.0,11.7,1504.7,267.5,-1.5,1.5,1990.499,13.29,0.064,308.7
09,2022-05-17T17:00:00,2000.0,42.79,6.0312,-0.068,0.021,-0.02,76.0,71.0,76.0,11.7,1504.7,266.5,-1.8,1.2,1990.548,13.29,0.071,287.2
09,2022-05-17T17:30:00,2000.0,42.79,6.0312,-0.06,0.025,0.022,75.0,70.0,76.0,11.7,1504.7,275.9,-1.4,1.1,1990.582,13.29,0.064,292.6
09,2022-05-17T18:00:00,2000.0,42.79,6.0312,-0.055,0.04,-0.014,75.0,72.0,76.0,11.7,1504.7,270.5,-2.0,1.2,1990.623,13.29,0.068,306.0
09,2022-05-17T18:30:00,2000.0,42.79,6.0312,-0.062,0.042,-0.001,74.0,73.0,74.0,11.7,1504.7,274.1,-2.1,1.1,1990.686,13.29,0.074,304.1
09,2022-05-17T19:00:00,2000.0,42.79,6.0312,-0.039,0.048,-0.027,73.0,70.0,72.0,11.7,1504.7,280.9,-1.3,1.3,1990.712,13.29,0.061,320.9
09,2022-05-17T19:30:00,2000.0,42.79,6.0312,-0.067,0.025,0.0,75.0,70.0,72.0,11.7,1504.7,277.5,-1.4,1.1,1990.781,13.29,0.071,290.5
09,2022-05-17T20:00:00,2000.0,42.79,6.0312,-0.042,0.035,0.005,74.0,70.0,73.0,11.7,1504.7,283.4,-1.8,1.1,1990.742,13.29,0.054,309.8
09,2022-05-17T20:30:00,2000.0,42.79,6.0312,-0.056,0.056,-0.004,76.0,73.0,76.0,11.7,1504.7,287.0,-1.7,1.3,1990.737,13.29,0.079,315.0
09,2022-05-17T21:00:00,2000.0,42.79,6.0312,-0.059,0.045,-0.017,73.0,71.0,73.0,11.7,1504.7,272.9,-1.7,1.4,1990.783,13.29,0.074,307.3
